Location: Le Domaine
(47.0333°N, 76.5361°W)
Time: 14:58:36
(UTC-05:00)

deb Explorer IX - All Passes

Search period start: 12 November 2019 00:00
Search period end: 22 November 2019 00:00
Orbit: 546 x 1105 km, 38.8° (Epoch: 12 November)

Date Brightness Start Highest point End Pass type
(mag) Time Alt. Az. Time Alt. Az. Time Alt. Az.
12 Nov - 03:07:24 10° S 03:09:45 13° SSE 03:11:59 10° SE visible
12 Nov - 04:51:51 10° SW 04:55:54 25° S 04:59:33 10° ESE visible
12 Nov - 06:38:17 10° WSW 06:42:07 27° S 06:45:40 10° SE daylight
12 Nov - 08:25:47 10° WSW 08:28:06 14° SSW 08:30:21 10° S daylight
13 Nov - 02:45:05 10° S 02:47:49 14° SSE 02:50:24 10° SE visible
13 Nov - 04:29:46 10° SW 04:34:01 26° S 04:37:48 10° ESE visible
13 Nov - 06:16:17 10° WSW 06:20:15 27° S 06:23:53 10° SE visible
13 Nov - 08:03:53 10° WSW 08:06:13 14° SSW 08:08:29 10° S daylight
14 Nov - 02:22:47 10° S 02:25:53 15° SSE 02:28:46 10° ESE visible
14 Nov - 04:07:40 10° SW 04:12:07 28° S 04:16:04 10° ESE visible
14 Nov - 05:54:15 10° WSW 05:58:22 28° S 06:02:05 10° SE visible
14 Nov - 07:41:57 10° WSW 07:44:21 14° SSW 07:46:39 10° S daylight
15 Nov - 02:00:29 10° SSW 02:03:56 16° SSE 02:07:06 10° ESE night (unlit)
15 Nov - 03:45:32 10° SW 03:50:12 29° S 03:54:18 10° ESE visible
15 Nov - 05:32:13 10° WSW 05:36:29 29° S 05:40:19 10° SE visible
15 Nov - 07:19:58 10° WSW 07:22:27 15° SSW 07:24:50 10° S daylight
16 Nov - 01:38:12 10° SSW 01:41:58 17° SSE 01:45:25 10° ESE night (unlit)
16 Nov - 03:23:24 10° SW 03:28:16 30° S 03:32:32 10° ESE visible
16 Nov - 05:10:09 10° WSW 05:14:35 30° S 05:18:32 10° SE visible
16 Nov - 06:57:57 10° WSW 07:00:33 15° SSW 07:03:02 10° S daylight
17 Nov - 01:15:55 10° SSW 01:19:59 18° SSE 01:23:41 10° ESE night (unlit)
17 Nov - 03:01:15 10° SW 03:06:19 31° S 03:10:45 10° ESE visible
17 Nov - 04:48:03 10° WSW 04:52:41 30° S 04:56:45 10° SE visible
17 Nov - 06:35:55 10° WSW 06:38:39 15° SSW 06:41:14 10° S visible
18 Nov - 00:53:38 10° SSW 00:57:59 19° SSE 01:01:56 10° ESE night (unlit)
18 Nov - 02:39:03 10° SW 02:44:22 32° S 02:48:59 10° ESE visible
18 Nov - 04:25:56 10° WSW 04:30:46 31° S 04:34:58 10° SE visible
18 Nov - 06:13:51 10° WSW 06:16:44 16° SSW 06:19:27 10° S visible
19 Nov - 00:31:22 10° SSW 00:35:58 20° SSE 00:40:10 10° ESE night (unlit)
19 Nov - 02:16:53 10° SW 02:22:23 33° S 02:27:11 10° ESE visible
19 Nov - 04:03:49 10° WSW 04:08:49 32° S 04:13:10 10° SE visible
19 Nov - 05:51:45 10° WSW 05:54:49 16° SSW 05:57:39 10° S visible
20 Nov - 00:09:05 10° SSW 00:13:56 21° SSE 00:18:22 10° ESE night (unlit)
20 Nov - 01:54:41 10° SW 02:00:23 35° S 02:05:22 10° ESE night (unlit)
20 Nov - 03:41:40 10° WSW 03:46:51 33° S 03:51:22 10° SE visible
20 Nov - 05:29:38 10° WSW 05:32:53 16° SSW 05:35:52 10° S visible
20 Nov - 23:46:50 10° SSW 23:51:53 22° SSE 23:56:32 10° ESE night (unlit)
21 Nov - 01:32:30 10° SW 01:38:23 36° S 01:43:32 10° ESE night (unlit)
21 Nov - 03:19:30 10° WSW 03:24:53 34° S 03:29:33 10° SE visible
21 Nov - 05:07:30 10° WSW 05:10:56 17° SSW 05:14:04 10° S visible
21 Nov - 23:24:34 10° SSW 23:29:50 23° SSE 23:34:41 10° ESE night (unlit)
